Time,TemperatureF,DewpointF,PressureIn,WindDirection,WindDirectionDegrees,WindSpeedMPH,WindSpeedGustMPH,Humidity,HourlyPrecipIn,Conditions,Clouds,dailyrainin,SoftwareType,DateUTC
2013-07-01 00:01:00,57.6,48.7,30.00,NE,54,0.0,0.0,72,0.00,,CLR,0.00,VWS V13.01,2013-07-01 04:01:00,
2013-07-01 00:03:00,57.6,48.7,30.00,NE,54,0.0,0.0,72,0.00,,CLR,0.00,VWS V13.01,2013-07-01 04:03:00,
2013-07-01 00:08:00,57.5,48.6,30.00,NE,54,0.0,0.0,72,0.00,,CLR,0.00,VWS V13.01,2013-07-01 04:08:00,
2013-07-01 00:13:00,57.5,48.6,30.00,NE,54,0.0,0.0,72,0.00,,CLR,0.00,VWS V13.01,2013-07-01 04:13:00,
2013-07-01 00:18:00,57.4,48.8,30.00,NE,54,0.0,0.0,73,0.00,,CLR,0.00,VWS V13.01,2013-07-01 04:18:00,
2013-07-01 00:23:00,57.2,48.6,30.00,NE,54,0.0,0.0,73,0.00,,CLR,0.00,VWS V13.01,2013-07-01 04:23:00,
2013-07-01 00:28:00,57.1,48.5,30.00,NE,54,0.0,0.0,73,0.00,,CLR,0.00,VWS V13.01,2013-07-01 04:28:00,
2013-07-01 00:33:00,57.1,48.2,30.00,NE,54,0.0,0.0,72,0.00,,CLR,0.00,VWS V13.01,2013-07-01 04:33:00,
2013-07-01 00:38:00,57.1,48.2,30.00,NE,54,0.0,0.0,72,0.00,,CLR,0.00,VWS V13.01,2013-07-01 04:38:00,
2013-07-01 00:43:00,57.0,47.7,30.00,NE,54,0.0,0.0,71,0.00,,CLR,0.00,VWS V13.01,2013-07-01 04:43:00,
2013-07-01 00:48:00,56.9,48.0,30.00,NE,54,0.0,0.0,72,0.00,,CLR,0.00,VWS V13.01,2013-07-01 04:48:00,
2013-07-01 00:53:00,56.9,48.0,30.00,NE,54,0.0,0.0,72,0.00,,CLR,0.00,VWS V13.01,2013-07-01 04:53:00,
2013-07-01 00:58:00,56.8,48.2,30.00,NE,54,0.0,0.0,73,0.00,,CLR,0.00,VWS V13.01,2013-07-01 04:58:00,
2013-07-01 01:03:00,56.7,47.8,30.00,NE,54,0.0,0.0,72,0.00,,CLR,0.00,VWS V13.01,2013-07-01 05:03:00,
2013-07-01 01:08:00,56.8,47.9,30.00,NE,54,0.0,0.0,72,0.00,,CLR,0.00,VWS V13.01,2013-07-01 05:08:00,
2013-07-01 01:13:00,56.8,47.9,30.00,NE,54,0.0,0.0,72,0.00,,CLR,0.00,VWS V13.01,2013-07-01 05:13:00,
2013-07-01 01:18:00,56.8,47.5,30.00,NE,54,0.0,0.0,71,0.00,,CLR,0.00,VWS V13.01,2013-07-01 05:18:00,
2013-07-01 01:23:00,56.9,47.6,30.00,NE,54,0.0,0.0,71,0.00,,CLR,0.00,VWS V13.01,2013-07-01 05:23:00,
2013-07-01 01:28:00,57.0,47.3,30.00,NE,41,0.0,0.0,70,0.00,,CLR,0.00,VWS V13.01,2013-07-01 05:28:00,
2013-07-01 01:33:00,57.1,47.0,30.00,NNE,21,0.0,1.0,69,0.00,,CLR,0.00,VWS V13.01,2013-07-01 05:33:00,
2013-07-01 01:38:00,57.3,46.8,30.00,North,5,0.0,2.0,68,0.00,,CLR,0.00,VWS V13.01,2013-07-01 05:38:00,
2013-07-01 01:43:00,57.5,47.0,30.00,North,9,1.0,2.0,68,0.00,,CLR,0.00,VWS V13.01,2013-07-01 05:43:00,
2013-07-01 01:48:00,57.6,47.1,30.00,NNE,16,0.0,2.0,68,0.00,,CLR,0.00,VWS V13.01,2013-07-01 05:48:00,
2013-07-01 01:53:00,57.7,47.2,30.00,North,11,0.0,3.0,68,0.00,,CLR,0.00,VWS V13.01,2013-07-01 05:53:00,
2013-07-01 01:58:00,57.6,47.5,30.00,North,5,0.0,2.0,69,0.00,,CLR,0.00,VWS V13.01,2013-07-01 05:58:00,
2013-07-01 02:03:00,57.6,47.5,30.00,North,360,0.0,2.0,69,0.00,,CLR,0.00,VWS V13.01,2013-07-01 06:03:00,
2013-07-01 02:08:00,57.5,47.4,30.00,North,5,0.0,2.0,69,0.00,,CLR,0.00,VWS V13.01,2013-07-01 06:08:00,
2013-07-01 02:13:00,57.4,47.3,30.00,NNE,17,0.0,5.0,69,0.00,,CLR,0.00,VWS V13.01,2013-07-01 06:13:00,
2013-07-01 02:18:00,57.4,47.7,30.00,North,10,0.0,2.0,70,0.00,,CLR,0.00,VWS V13.01,2013-07-01 06:18:00,
2013-07-01 02:23:00,57.4,47.7,30.00,North,11,0.0,3.0,70,0.00,,CLR,0.00,VWS V13.01,2013-07-01 06:23:00,
2013-07-01 02:28:00,57.4,48.1,30.00,North,11,1.0,2.0,71,0.00,,CLR,0.00,VWS V13.01,2013-07-01 06:28:00,
2013-07-01 02:33:00,57.3,48.0,30.00,NNE,13,1.0,3.0,71,0.00,,CLR,0.00,VWS V13.01,2013-07-01 06:33:00,
2013-07-01 02:38:00,57.3,48.0,30.00,North,9,0.0,2.0,71,0.00,,CLR,0.00,VWS V13.01,2013-07-01 06:38:00,
2013-07-01 02:43:00,57.3,48.4,30.01,NNE,18,0.0,2.0,72,0.00,,CLR,0.00,VWS V13.01,2013-07-01 06:43:00,
2013-07-01 02:48:00,57.2,48.3,30.01,North,5,2.0,2.0,72,0.00,,CLR,0.00,VWS V13.01,2013-07-01 06:48:00,
2013-07-01 02:53:00,57.1,48.2,30.01,NNW,345,1.0,3.0,72,0.00,,CLR,0.00,VWS V13.01,2013-07-01 06:53:00,
2013-07-01 02:58:00,57.0,48.4,30.01,North,360,1.0,2.0,73,0.00,,CLR,0.00,VWS V13.01,2013-07-01 06:58:00,
2013-07-01 03:03:00,56.9,48.3,30.00,North,360,1.0,2.0,73,0.00,,CLR,0.00,VWS V13.01,2013-07-01 07:03:00,
2013-07-01 03:08:00,56.7,48.2,30.01,North,360,0.0,2.0,73,0.00,,CLR,0.00,VWS V13.01,2013-07-01 07:08:00,
2013-07-01 03:13:00,56.7,48.2,30.01,North,360,1.0,3.0,73,0.00,,CLR,0.00,VWS V13.01,2013-07-01 07:13:00,
2013-07-01 03:18:00,56.7,48.5,30.01,North,355,0.0,2.0,74,0.00,,CLR,0.00,VWS V13.01,2013-07-01 07:18:00,
2013-07-01 03:23:00,56.6,48.4,30.01,North,5,0.0,2.0,74,0.00,,CLR,0.00,VWS V13.01,2013-07-01 07:23:00,
2013-07-01 03:28:00,56.6,48.4,30.00,NNW,328,0.0,2.0,74,0.00,,CLR,0.00,VWS V13.01,2013-07-01 07:28:00,
2013-07-01 03:33:00,56.6,48.4,30.00,NNW,338,0.0,2.0,74,0.00,,CLR,0.00,VWS V13.01,2013-07-01 07:33:00,
2013-07-01 03:38:00,56.5,48.7,30.00,NNW,332,1.0,2.0,75,0.00,,CLR,0.00,VWS V13.01,2013-07-01 07:38:00,
2013-07-01 03:43:00,56.5,48.7,30.01,North,355,2.0,3.0,75,0.00,,CLR,0.00,VWS V13.01,2013-07-01 07:43:00,
2013-07-01 03:48:00,56.6,48.8,30.00,NNW,348,0.0,3.0,75,0.00,,CLR,0.00,VWS V13.01,2013-07-01 07:48:00,
2013-07-01 03:53:00,56.6,48.8,30.01,NNW,345,1.0,3.0,75,0.00,,CLR,0.00,VWS V13.01,2013-07-01 07:53:00,
2013-07-01 03:59:00,56.5,48.7,30.01,North,5,1.0,3.0,75,0.00,,CLR,0.00,VWS V13.01,2013-07-01 07:59:00,
2013-07-01 04:04:00,56.4,48.9,30.01,North,351,1.0,3.0,76,0.00,,CLR,0.00,VWS V13.01,2013-07-01 08:04:00,
2013-07-01 04:09:00,56.4,48.9,30.01,NNW,348,0.0,2.0,76,0.00,,CLR,0.00,VWS V13.01,2013-07-01 08:09:00,
2013-07-01 04:14:00,56.3,49.2,30.01,NNW,342,0.0,2.0,77,0.00,,CLR,0.00,VWS V13.01,2013-07-01 08:14:00,
2013-07-01 04:19:00,56.3,49.2,30.01,North,5,1.0,2.0,77,0.00,,CLR,0.00,VWS V13.01,2013-07-01 08:19:00,
2013-07-01 04:24:00,56.3,49.2,30.01,NNW,336,1.0,3.0,77,0.00,,CLR,0.00,VWS V13.01,2013-07-01 08:24:00,
2013-07-01 04:29:00,56.3,49.2,30.01,NW,322,2.0,3.0,77,0.00,,CLR,0.00,VWS V13.01,2013-07-01 08:29:00,
2013-07-01 04:34:00,56.3,49.2,30.01,North,5,1.0,3.0,77,0.00,,CLR,0.00,VWS V13.01,2013-07-01 08:34:00,
2013-07-01 04:39:00,56.3,49.5,30.01,NNW,346,1.0,3.0,78,0.00,,CLR,0.00,VWS V13.01,2013-07-01 08:39:00,
2013-07-01 04:44:00,56.3,49.5,30.02,North,355,0.0,3.0,78,0.00,,CLR,0.00,VWS V13.01,2013-07-01 08:44:00,
2013-07-01 04:49:00,56.3,49.5,30.02,NE,42,0.0,3.0,78,0.00,,CLR,0.00,VWS V13.01,2013-07-01 08:49:00,
2013-07-01 04:54:00,56.3,49.5,30.02,North,5,1.0,3.0,78,0.00,,CLR,0.00,VWS V13.01,2013-07-01 08:54:00,
2013-07-01 04:59:00,56.3,49.5,30.02,NW,316,0.0,4.0,78,0.00,,CLR,0.00,VWS V13.01,2013-07-01 08:59:00,
2013-07-01 05:04:00,56.3,49.5,30.02,North,11,1.0,4.0,78,0.00,,CLR,0.00,VWS V13.01,2013-07-01 09:04:00,
2013-07-01 05:09:00,56.3,49.9,30.02,North,5,1.0,2.0,79,0.00,,CLR,0.00,VWS V13.01,2013-07-01 09:09:00,
2013-07-01 05:14:00,56.3,49.9,30.02,North,360,2.0,3.0,79,0.00,,CLR,0.00,VWS V13.01,2013-07-01 09:14:00,
2013-07-01 05:19:00,56.3,49.9,30.02,NNE,17,1.0,2.0,79,0.00,,CLR,0.00,VWS V13.01,2013-07-01 09:19:00,
2013-07-01 05:24:00,56.2,49.8,30.02,North,349,0.0,3.0,79,0.00,,CLR,0.00,VWS V13.01,2013-07-01 09:24:00,
2013-07-01 05:29:00,56.2,49.8,30.02,North,5,1.0,4.0,79,0.00,,CLR,0.00,VWS V13.01,2013-07-01 09:29:00,
2013-07-01 05:34:00,56.1,50.0,30.02,North,355,1.0,2.0,80,0.00,,CLR,0.00,VWS V13.01,2013-07-01 09:34:00,
2013-07-01 05:39:00,56.1,50.0,30.03,North,350,1.0,3.0,80,0.00,,CLR,0.00,VWS V13.01,2013-07-01 09:39:00,
2013-07-01 05:44:00,56.1,50.0,30.03,North,5,1.0,3.0,80,0.00,,CLR,0.00,VWS V13.01,2013-07-01 09:44:00,
2013-07-01 05:49:00,56.1,50.0,30.03,North,5,1.0,4.0,80,0.00,,CLR,0.00,VWS V13.01,2013-07-01 09:49:00,
2013-07-01 05:54:00,56.1,50.0,30.03,NNW,335,0.0,3.0,80,0.00,,CLR,0.00,VWS V13.01,2013-07-01 09:54:00,
2013-07-01 05:59:00,56.1,50.4,30.03,North,9,0.0,2.0,81,0.00,,CLR,0.00,VWS V13.01,2013-07-01 09:59:00,
2013-07-01 06:04:00,56.0,50.3,30.03,NW,320,1.0,3.0,81,0.00,,CLR,0.00,VWS V13.01,2013-07-01 10:04:00,
2013-07-01 06:09:00,56.0,50.3,30.03,North,5,1.0,3.0,81,0.00,,CLR,0.00,VWS V13.01,2013-07-01 10:09:00,
2013-07-01 06:14:00,55.9,50.2,30.04,NW,314,1.0,3.0,81,0.00,,CLR,0.00,VWS V13.01,2013-07-01 10:14:00,
2013-07-01 06:19:00,55.9,50.2,30.04,NE,35,1.0,2.0,81,0.00,,CLR,0.00,VWS V13.01,2013-07-01 10:19:00,
2013-07-01 06:24:00,55.9,50.5,30.04,NNW,345,2.0,3.0,82,0.00,,CLR,0.00,VWS V13.01,2013-07-01 10:24:00,
2013-07-01 06:29:00,55.9,50.5,30.04,North,351,1.0,3.0,82,0.00,,CLR,0.00,VWS V13.01,2013-07-01 10:29:00,
2013-07-01 06:34:00,56.0,50.6,30.04,NNW,348,2.0,3.0,82,0.00,,CLR,0.00,VWS V13.01,2013-07-01 10:34:00,
2013-07-01 06:39:00,56.0,50.6,30.05,NNW,336,0.0,3.0,82,0.00,,CLR,0.00,VWS V13.01,2013-07-01 10:39:00,
2013-07-01 06:40:00,56.0,50.6,30.05,NNW,336,1.0,3.0,82,0.00,,CLR,0.00,VWS V13.01,2013-07-01 10:40:00,
2013-07-01 06:45:00,56.0,50.6,30.05,North,350,2.0,2.0,82,0.00,,CLR,0.00,VWS V13.01,2013-07-01 10:45:00,
2013-07-01 06:50:00,56.1,50.7,30.05,North,355,1.0,2.0,82,0.00,,CLR,0.00,VWS V13.01,2013-07-01 10:50:00,
2013-07-01 06:55:00,56.2,50.8,30.05,NNE,20,0.0,3.0,82,0.00,,CLR,0.00,VWS V13.01,2013-07-01 10:55:00,
2013-07-01 07:00:00,56.3,50.9,30.05,NNW,346,1.0,4.0,82,0.00,,CLR,0.00,VWS V13.01,2013-07-01 11:00:00,
2013-07-01 07:05:00,56.5,51.1,30.05,NNW,342,1.0,5.0,82,0.00,,CLR,0.00,VWS V13.01,2013-07-01 11:05:00,
2013-07-01 07:10:00,56.7,50.9,30.05,North,355,0.0,2.0,81,0.00,,CLR,0.00,VWS V13.01,2013-07-01 11:10:00,
2013-07-01 07:15:00,56.9,51.1,30.06,North,355,0.0,3.0,81,0.00,,CLR,0.00,VWS V13.01,2013-07-01 11:15:00,
2013-07-01 07:20:00,57.3,51.2,30.06,North,355,0.0,2.0,80,0.00,,CLR,0.00,VWS V13.01,2013-07-01 11:20:00,
2013-07-01 07:25:00,57.7,51.2,30.06,North,5,1.0,4.0,79,0.00,,CLR,0.00,VWS V13.01,2013-07-01 11:25:00,
2013-07-01 07:30:00,58.1,51.6,30.06,North,5,0.0,3.0,79,0.00,,CLR,0.00,VWS V13.01,2013-07-01 11:30:00,
2013-07-01 07:35:00,58.4,51.9,30.06,North,360,1.0,2.0,79,0.00,,CLR,0.00,VWS V13.01,2013-07-01 11:35:00,
2013-07-01 07:40:00,58.7,51.9,30.06,North,350,0.0,4.0,78,0.00,,CLR,0.00,VWS V13.01,2013-07-01 11:40:00,
2013-07-01 07:45:00,58.9,51.7,30.06,NNE,13,2.0,4.0,77,0.00,,CLR,0.00,VWS V13.01,2013-07-01 11:45:00,
2013-07-01 07:50:00,59.2,52.0,30.07,NNW,346,0.0,3.0,77,0.00,,CLR,0.00,VWS V13.01,2013-07-01 11:50:00,
2013-07-01 07:55:00,59.7,52.5,30.07,NW,317,0.0,3.0,77,0.00,,CLR,0.00,VWS V13.01,2013-07-01 11:55:00,
2013-07-01 08:00:00,60.3,53.1,30.07,NW,318,0.0,3.0,77,0.00,,CLR,0.00,VWS V13.01,2013-07-01 12:00:00,
2013-07-01 08:05:00,60.9,53.3,30.07,ENE,59,0.0,3.0,76,0.00,,CLR,0.00,VWS V13.01,2013-07-01 12:05:00,
2013-07-01 08:10:00,61.4,53.4,30.07,NNW,328,2.0,4.0,75,0.00,,CLR,0.00,VWS V13.01,2013-07-01 12:10:00,
2013-07-01 08:15:00,61.8,53.8,30.07,West,278,0.0,3.0,75,0.00,,CLR,0.00,VWS V13.01,2013-07-01 12:15:00,
2013-07-01 08:20:00,62.3,53.9,30.07,ENE,71,0.0,5.0,74,0.00,,CLR,0.00,VWS V13.01,2013-07-01 12:20:00,
2013-07-01 08:25:00,62.7,54.3,30.07,WSW,246,0.0,4.0,74,0.00,,CLR,0.00,VWS V13.01,2013-07-01 12:25:00,
2013-07-01 08:30:00,63.1,54.7,30.07,NW,320,0.0,5.0,74,0.00,,CLR,0.00,VWS V13.01,2013-07-01 12:30:00,
2013-07-01 08:35:00,63.6,55.2,30.07,NNE,32,1.0,4.0,74,0.00,,CLR,0.00,VWS V13.01,2013-07-01 12:35:00,
2013-07-01 08:40:00,64.2,55.8,30.08,ENE,71,0.0,3.0,74,0.00,,CLR,0.00,VWS V13.01,2013-07-01 12:40:00,
2013-07-01 08:45:00,64.9,56.0,30.08,North,355,0.0,4.0,73,0.00,,CLR,0.00,VWS V13.01,2013-07-01 12:45:00,
2013-07-01 08:50:00,65.6,56.7,30.08,NNW,329,0.0,3.0,73,0.00,,CLR,0.00,VWS V13.01,2013-07-01 12:50:00,
2013-07-01 08:55:00,66.1,56.8,30.08,East,96,3.0,6.0,72,0.00,,CLR,0.00,VWS V13.01,2013-07-01 12:55:00,
2013-07-01 09:00:00,66.5,57.2,30.08,ENE,57,0.0,5.0,72,0.00,,CLR,0.00,VWS V13.01,2013-07-01 13:00:00,
2013-07-01 09:05:00,67.0,57.7,30.08,NNE,28,1.0,5.0,72,0.00,,CLR,0.00,VWS V13.01,2013-07-01 13:05:00,
2013-07-01 09:11:00,67.3,57.2,30.08,NNE,26,1.0,7.0,70,0.00,,CLR,0.00,VWS V13.01,2013-07-01 13:11:00,
2013-07-01 09:16:00,67.4,57.3,30.08,ENE,69,4.0,7.0,70,0.00,,CLR,0.00,VWS V13.01,2013-07-01 13:16:00,
2013-07-01 09:21:00,67.2,57.1,30.08,NE,36,3.0,12.0,70,0.00,,CLR,0.00,VWS V13.01,2013-07-01 13:21:00,
2013-07-01 09:26:00,67.2,57.5,30.09,ENE,68,0.0,4.0,71,0.00,,CLR,0.00,VWS V13.01,2013-07-01 13:26:00,
2013-07-01 09:31:00,67.4,57.7,30.09,NE,43,0.0,6.0,71,0.00,,CLR,0.00,VWS V13.01,2013-07-01 13:31:00,
2013-07-01 09:36:00,67.6,57.1,30.09,ENE,70,5.0,6.0,69,0.00,,CLR,0.00,VWS V13.01,2013-07-01 13:36:00,
2013-07-01 09:41:00,67.2,57.1,30.09,ENE,74,1.0,10.0,70,0.00,,CLR,0.00,VWS V13.01,2013-07-01 13:41:00,
2013-07-01 09:46:00,67.1,57.0,30.10,NNE,28,2.0,6.0,70,0.00,,CLR,0.00,VWS V13.01,2013-07-01 13:46:00,
2013-07-01 09:51:00,66.9,56.8,30.10,East,86,3.0,10.0,70,0.00,,CLR,0.00,VWS V13.01,2013-07-01 13:51:00,
2013-07-01 09:56:00,66.7,57.0,30.10,ENE,69,4.0,10.0,71,0.00,,CLR,0.00,VWS V13.01,2013-07-01 13:56:00,
2013-07-01 10:01:00,66.7,56.6,30.10,NE,56,2.0,7.0,70,0.00,,CLR,0.00,VWS V13.01,2013-07-01 14:01:00,
2013-07-01 10:06:00,66.9,57.2,30.10,NNE,23,3.0,5.0,71,0.00,,FEW080,0.00,VWS V13.01,2013-07-01 14:06:00,
2013-07-01 10:11:00,67.1,57.0,30.10,North,360,2.0,8.0,70,0.00,,FEW080,0.00,VWS V13.01,2013-07-01 14:11:00,
2013-07-01 10:16:00,67.0,57.3,30.10,ENE,69,1.0,6.0,71,0.00,,FEW080,0.00,VWS V13.01,2013-07-01 14:16:00,
2013-07-01 10:21:00,67.2,56.7,30.10,North,11,0.0,6.0,69,0.00,,FEW080,0.00,VWS V13.01,2013-07-01 14:21:00,
2013-07-01 10:26:00,67.1,57.4,30.10,NE,40,3.0,7.0,71,0.00,,FEW080,0.00,VWS V13.01,2013-07-01 14:26:00,
2013-07-01 10:31:00,66.9,56.8,30.09,NNW,329,1.0,8.0,70,0.00,,FEW080,0.00,VWS V13.01,2013-07-01 14:31:00,
2013-07-01 10:36:00,67.2,56.7,30.09,NNW,345,1.0,5.0,69,0.00,,FEW080,0.00,VWS V13.01,2013-07-01 14:36:00,
2013-07-01 10:41:00,67.3,56.8,30.10,NE,47,4.0,5.0,69,0.00,,FEW080,0.00,VWS V13.01,2013-07-01 14:41:00,
2013-07-01 10:46:00,67.5,57.4,30.10,ENE,59,3.0,5.0,70,0.00,,FEW080,0.00,VWS V13.01,2013-07-01 14:46:00,
2013-07-01 10:51:00,67.8,56.5,30.10,East,91,6.0,10.0,67,0.00,,FEW080,0.00,VWS V13.01,2013-07-01 14:51:00,
2013-07-01 10:56:00,67.7,56.8,30.10,North,355,5.0,8.0,68,0.00,,FEW080,0.00,VWS V13.01,2013-07-01 14:56:00,
2013-07-01 11:01:00,67.7,56.8,30.10,NE,51,1.0,8.0,68,0.00,,FEW080,0.00,VWS V13.01,2013-07-01 15:01:00,
2013-07-01 11:06:00,67.9,56.5,30.10,NE,52,2.0,10.0,67,0.00,,CLR,0.00,VWS V13.01,2013-07-01 15:06:00,
2013-07-01 11:11:00,68.1,56.3,30.11,NE,51,2.0,10.0,66,0.00,,CLR,0.00,VWS V13.01,2013-07-01 15:11:00,
2013-07-01 11:16:00,68.5,57.1,30.11,NE,55,2.0,5.0,67,0.00,,CLR,0.00,VWS V13.01,2013-07-01 15:16:00,
2013-07-01 11:21:00,68.8,56.1,30.11,ENE,62,0.0,7.0,64,0.00,,CLR,0.00,VWS V13.01,2013-07-01 15:21:00,
2013-07-01 11:26:00,68.8,56.6,30.11,NE,52,2.0,5.0,65,0.00,,CLR,0.00,VWS V13.01,2013-07-01 15:26:00,
2013-07-01 11:31:00,68.5,56.3,30.11,NE,45,3.0,8.0,65,0.00,,CLR,0.00,VWS V13.01,2013-07-01 15:31:00,
2013-07-01 11:36:00,68.1,55.9,30.11,ENE,61,5.0,11.0,65,0.00,,CLR,0.00,VWS V13.01,2013-07-01 15:36:00,
2013-07-01 11:41:00,67.7,56.0,30.11,NE,51,5.0,8.0,66,0.00,,CLR,0.00,VWS V13.01,2013-07-01 15:41:00,
2013-07-01 11:46:00,67.6,56.7,30.11,North,5,0.0,8.0,68,0.00,,CLR,0.00,VWS V13.01,2013-07-01 15:46:00,
2013-07-01 11:51:00,68.2,57.2,30.11,ENE,74,3.0,8.0,68,0.00,,CLR,0.00,VWS V13.01,2013-07-01 15:51:00,
2013-07-01 11:56:00,68.1,55.9,30.11,ENE,68,8.0,11.0,65,0.00,,CLR,0.00,VWS V13.01,2013-07-01 15:56:00,
2013-07-01 12:01:00,68.2,56.0,30.12,NNE,22,1.0,7.0,65,0.00,,CLR,0.00,VWS V13.01,2013-07-01 16:01:00,
2013-07-01 12:06:00,68.3,55.7,30.12,North,360,0.0,8.0,64,0.00,,CLR,0.00,VWS V13.01,2013-07-01 16:06:00,
2013-07-01 12:11:00,68.4,55.8,30.12,NNE,20,2.0,6.0,64,0.00,,CLR,0.00,VWS V13.01,2013-07-01 16:11:00,
2013-07-01 12:16:00,68.7,56.9,30.12,ESE,103,8.0,9.0,66,0.00,,CLR,0.00,VWS V13.01,2013-07-01 16:16:00,
2013-07-01 12:21:00,69.0,55.9,30.12,NNE,33,2.0,10.0,63,0.00,,CLR,0.00,VWS V13.01,2013-07-01 16:21:00,
2013-07-01 12:26:00,69.1,56.4,30.12,WSW,250,2.0,6.0,64,0.00,,CLR,0.00,VWS V13.01,2013-07-01 16:26:00,
2013-07-01 12:31:00,69.7,56.6,30.12,NNE,25,4.0,6.0,63,0.00,,CLR,0.00,VWS V13.01,2013-07-01 16:31:00,
2013-07-01 12:36:00,70.0,56.0,30.12,East,86,2.0,7.0,61,0.00,,CLR,0.00,VWS V13.01,2013-07-01 16:36:00,
2013-07-01 12:41:00,70.1,56.5,30.12,NNW,327,2.0,8.0,62,0.00,,CLR,0.00,VWS V13.01,2013-07-01 16:41:00,
2013-07-01 12:46:00,70.3,56.2,30.12,NNW,338,1.0,8.0,61,0.00,,CLR,0.00,VWS V13.01,2013-07-01 16:46:00,
2013-07-01 12:51:00,70.7,56.6,30.12,East,85,1.0,5.0,61,0.00,,CLR,0.00,VWS V13.01,2013-07-01 16:51:00,
2013-07-01 12:56:00,70.7,55.2,30.12,East,94,1.0,8.0,58,0.00,,CLR,0.00,VWS V13.01,2013-07-01 16:56:00,
2013-07-01 13:02:00,70.2,54.3,30.12,ENE,76,8.0,9.0,57,0.00,,CLR,0.00,VWS V13.01,2013-07-01 17:02:00,
2013-07-01 13:07:00,69.5,54.6,30.12,North,5,2.0,8.0,59,0.00,,CLR,0.00,VWS V13.01,2013-07-01 17:07:00,
2013-07-01 13:12:00,69.4,54.5,30.12,NNE,21,3.0,9.0,59,0.00,,CLR,0.00,VWS V13.01,2013-07-01 17:12:00,
2013-07-01 13:17:00,68.6,54.2,30.12,NE,42,2.0,10.0,60,0.00,,CLR,0.00,VWS V13.01,2013-07-01 17:17:00,
2013-07-01 13:22:00,67.9,53.5,30.12,NE,55,2.0,6.0,60,0.00,,CLR,0.00,VWS V13.01,2013-07-01 17:22:00,
2013-07-01 13:27:00,67.8,53.4,30.12,NNE,30,3.0,12.0,60,0.00,,CLR,0.00,VWS V13.01,2013-07-01 17:27:00,
2013-07-01 13:32:00,68.1,54.2,30.12,NNE,30,4.0,7.0,61,0.00,,CLR,0.00,VWS V13.01,2013-07-01 17:32:00,
2013-07-01 13:37:00,68.4,54.0,30.12,ENE,71,4.0,10.0,60,0.00,,CLR,0.00,VWS V13.01,2013-07-01 17:37:00,
2013-07-01 13:42:00,68.5,53.2,30.12,NE,50,3.0,5.0,58,0.00,,CLR,0.00,VWS V13.01,2013-07-01 17:42:00,
2013-07-01 13:47:00,68.5,52.7,30.12,NNW,331,0.0,6.0,57,0.00,,CLR,0.00,VWS V13.01,2013-07-01 17:47:00,
2013-07-01 13:52:00,68.4,52.1,30.13,NNE,20,0.0,5.0,56,0.00,,CLR,0.00,VWS V13.01,2013-07-01 17:52:00,
2013-07-01 13:57:00,68.4,52.6,30.13,NNE,22,2.0,7.0,57,0.00,,CLR,0.00,VWS V13.01,2013-07-01 17:57:00,
2013-07-01 14:02:00,68.2,52.4,30.13,NNW,329,4.0,5.0,57,0.00,,CLR,0.00,VWS V13.01,2013-07-01 18:02:00,
2013-07-01 14:07:00,67.7,51.9,30.13,NE,42,0.0,8.0,57,0.00,,CLR,0.00,VWS V13.01,2013-07-01 18:07:00,
2013-07-01 14:12:00,67.1,52.8,30.13,ENE,72,1.0,5.0,60,0.00,,CLR,0.00,VWS V13.01,2013-07-01 18:12:00,
2013-07-01 14:17:00,67.4,53.0,30.13,NW,314,3.0,6.0,60,0.00,,CLR,0.00,VWS V13.01,2013-07-01 18:17:00,
2013-07-01 14:22:00,67.6,51.4,30.14,NNE,30,2.0,8.0,56,0.00,,CLR,0.00,VWS V13.01,2013-07-01 18:22:00,
2013-07-01 14:27:00,67.1,51.4,30.13,NNE,30,1.0,6.0,57,0.00,,CLR,0.00,VWS V13.01,2013-07-01 18:27:00,
2013-07-01 14:32:00,67.0,52.2,30.14,NNW,334,2.0,5.0,59,0.00,,CLR,0.00,VWS V13.01,2013-07-01 18:32:00,
2013-07-01 14:37:00,67.2,51.9,30.14,NNE,22,4.0,9.0,58,0.00,,CLR,0.00,VWS V13.01,2013-07-01 18:37:00,
2013-07-01 14:42:00,67.0,51.3,30.14,NNE,25,1.0,7.0,57,0.00,,CLR,0.00,VWS V13.01,2013-07-01 18:42:00,
2013-07-01 14:47:00,67.3,51.6,30.14,NE,34,1.0,7.0,57,0.00,,CLR,0.00,VWS V13.01,2013-07-01 18:47:00,
2013-07-01 14:52:00,68.2,53.8,30.14,East,90,1.0,4.0,60,0.00,,CLR,0.00,VWS V13.01,2013-07-01 18:52:00,
2013-07-01 14:57:00,68.0,50.2,30.14,NNE,28,1.0,12.0,53,0.00,,CLR,0.00,VWS V13.01,2013-07-01 18:57:00,
2013-07-01 15:02:00,67.4,52.1,30.14,North,9,1.0,7.0,58,0.00,,CLR,0.00,VWS V13.01,2013-07-01 19:02:00,
2013-07-01 15:07:00,67.9,50.7,30.14,NE,49,1.0,7.0,54,0.00,,CLR,0.00,VWS V13.01,2013-07-01 19:07:00,
2013-07-01 15:12:00,68.0,51.2,30.14,East,86,1.0,8.0,55,0.00,,CLR,0.00,VWS V13.01,2013-07-01 19:12:00,
2013-07-01 15:17:00,68.5,51.7,30.14,NNE,30,4.0,6.0,55,0.00,,CLR,0.00,VWS V13.01,2013-07-01 19:17:00,
2013-07-01 15:22:00,69.1,51.3,30.14,NNE,13,1.0,5.0,53,0.00,,CLR,0.00,VWS V13.01,2013-07-01 19:22:00,
2013-07-01 15:27:00,69.0,50.7,30.14,ENE,78,4.0,8.0,52,0.00,,CLR,0.00,VWS V13.01,2013-07-01 19:27:00,
2013-07-01 15:32:00,68.6,49.2,30.14,NNE,29,0.0,7.0,50,0.00,,CLR,0.00,VWS V13.01,2013-07-01 19:32:00,
2013-07-01 15:37:00,67.9,49.1,30.14,NE,46,3.0,7.0,51,0.00,,CLR,0.00,VWS V13.01,2013-07-01 19:37:00,
2013-07-01 15:42:00,67.3,50.1,30.13,SW,236,1.0,7.0,54,0.00,,CLR,0.00,VWS V13.01,2013-07-01 19:42:00,
2013-07-01 15:47:00,67.5,50.3,30.13,NE,55,1.0,6.0,54,0.00,,CLR,0.00,VWS V13.01,2013-07-01 19:47:00,
2013-07-01 15:52:00,67.3,49.1,30.13,North,351,2.0,6.0,52,0.00,,CLR,0.00,VWS V13.01,2013-07-01 19:52:00,
2013-07-01 15:57:00,67.8,50.1,30.13,NE,34,0.0,4.0,53,0.00,,CLR,0.00,VWS V13.01,2013-07-01 19:57:00,
2013-07-01 16:02:00,67.9,48.1,30.13,NE,36,1.0,9.0,49,0.00,,CLR,0.00,VWS V13.01,2013-07-01 20:02:00,
2013-07-01 16:07:00,67.7,48.4,30.13,ENE,65,2.0,6.0,50,0.00,,CLR,0.00,VWS V13.01,2013-07-01 20:07:00,
2013-07-01 16:12:00,68.0,49.2,30.13,ESE,113,1.0,3.0,51,0.00,,CLR,0.00,VWS V13.01,2013-07-01 20:12:00,
2013-07-01 16:17:00,67.9,47.0,30.13,NE,42,6.0,8.0,47,0.00,,CLR,0.00,VWS V13.01,2013-07-01 20:17:00,
2013-07-01 16:22:00,67.3,47.5,30.13,North,5,3.0,8.0,49,0.00,,CLR,0.00,VWS V13.01,2013-07-01 20:22:00,
2013-07-01 16:27:00,68.0,49.2,30.13,NNE,13,1.0,6.0,51,0.00,,CLR,0.00,VWS V13.01,2013-07-01 20:27:00,
2013-07-01 16:32:00,68.8,47.2,30.12,NE,36,1.0,7.0,46,0.00,,CLR,0.00,VWS V13.01,2013-07-01 20:32:00,
2013-07-01 16:37:00,68.3,47.3,30.12,NE,36,6.0,9.0,47,0.00,,CLR,0.00,VWS V13.01,2013-07-01 20:37:00,
2013-07-01 16:42:00,67.4,47.6,30.13,NNE,28,2.0,7.0,49,0.00,,CLR,0.00,VWS V13.01,2013-07-01 20:42:00,
2013-07-01 16:43:00,67.3,47.0,30.13,NNE,31,2.0,7.0,48,0.00,,CLR,0.00,VWS V13.01,2013-07-01 20:43:00,
2013-07-01 16:48:00,66.9,46.0,30.13,NW,306,2.0,6.0,47,0.00,,CLR,0.00,VWS V13.01,2013-07-01 20:48:00,
2013-07-01 16:53:00,67.2,46.9,30.12,NE,46,4.0,8.0,48,0.00,,CLR,0.00,VWS V13.01,2013-07-01 20:53:00,
2013-07-01 16:58:00,67.3,47.0,30.13,North,351,0.0,8.0,48,0.00,,CLR,0.00,VWS V13.01,2013-07-01 20:58:00,
2013-07-01 17:03:00,67.3,45.2,30.12,NNE,33,0.0,7.0,45,0.00,,CLR,0.00,VWS V13.01,2013-07-01 21:03:00,
2013-07-01 17:08:00,66.8,45.4,30.12,North,5,1.0,6.0,46,0.00,,CLR,0.00,VWS V13.01,2013-07-01 21:08:00,
2013-07-01 17:13:00,66.4,44.4,30.12,North,355,0.0,7.0,45,0.00,,CLR,0.00,VWS V13.01,2013-07-01 21:13:00,
2013-07-01 17:19:00,66.5,45.1,30.13,NE,54,2.0,5.0,46,0.00,,CLR,0.00,VWS V13.01,2013-07-01 21:19:00,
2013-07-01 17:23:00,66.5,45.1,30.13,NE,43,1.0,8.0,46,0.00,,CLR,0.00,VWS V13.01,2013-07-01 21:23:00,
2013-07-01 17:29:00,66.4,43.2,30.13,NE,53,1.0,6.0,43,0.00,,CLR,0.00,VWS V13.01,2013-07-01 21:29:00,
2013-07-01 17:33:00,66.2,44.2,30.13,NNW,337,0.0,4.0,45,0.00,,CLR,0.00,VWS V13.01,2013-07-01 21:33:00,
2013-07-01 17:39:00,66.1,44.2,30.13,NNW,345,5.0,5.0,45,0.00,,CLR,0.00,VWS V13.01,2013-07-01 21:39:00,
2013-07-01 17:44:00,66.1,43.0,30.13,NE,34,2.0,7.0,43,0.00,,CLR,0.00,VWS V13.01,2013-07-01 21:44:00,
2013-07-01 17:49:00,66.1,43.6,30.14,NNE,24,3.0,6.0,44,0.00,,CLR,0.00,VWS V13.01,2013-07-01 21:49:00,
2013-07-01 17:54:00,66.3,43.8,30.14,NE,40,0.0,6.0,44,0.00,,CLR,0.00,VWS V13.01,2013-07-01 21:54:00,
2013-07-01 17:59:00,66.2,44.2,30.13,NE,53,2.0,7.0,45,0.00,,CLR,0.00,VWS V13.01,2013-07-01 21:59:00,
2013-07-01 18:04:00,65.9,42.8,30.13,ENE,69,2.0,7.0,43,0.00,,CLR,0.00,VWS V13.01,2013-07-01 22:04:00,
2013-07-01 18:09:00,65.8,42.7,30.13,NNE,28,2.0,6.0,43,0.00,,CLR,0.00,VWS V13.01,2013-07-01 22:09:00,
2013-07-01 18:14:00,65.8,44.5,30.13,ENE,63,2.0,3.0,46,0.00,,CLR,0.00,VWS V13.01,2013-07-01 22:14:00,
2013-07-01 18:19:00,65.7,43.8,30.13,East,95,1.0,7.0,45,0.00,,CLR,0.00,VWS V13.01,2013-07-01 22:19:00,
2013-07-01 18:24:00,65.8,45.0,30.13,NNW,340,1.0,5.0,47,0.00,,CLR,0.00,VWS V13.01,2013-07-01 22:24:00,
2013-07-01 18:29:00,66.1,45.3,30.13,North,355,2.0,2.0,47,0.00,,CLR,0.00,VWS V13.01,2013-07-01 22:29:00,
2013-07-01 18:34:00,66.0,43.5,30.13,ENE,72,3.0,6.0,44,0.00,,CLR,0.00,VWS V13.01,2013-07-01 22:34:00,
2013-07-01 18:39:00,65.7,44.9,30.13,NNE,14,2.0,4.0,47,0.00,,CLR,0.00,VWS V13.01,2013-07-01 22:39:00,
2013-07-01 18:44:00,65.6,44.3,30.13,NE,34,1.0,4.0,46,0.00,,CLR,0.00,VWS V13.01,2013-07-01 22:44:00,
2013-07-01 18:49:00,65.4,44.1,30.13,NNE,32,0.0,5.0,46,0.00,,CLR,0.00,VWS V13.01,2013-07-01 22:49:00,
2013-07-01 18:54:00,65.2,43.9,30.13,NW,314,3.0,4.0,46,0.00,,CLR,0.00,VWS V13.01,2013-07-01 22:54:00,
2013-07-01 18:59:00,64.9,43.7,30.13,NNW,327,1.0,5.0,46,0.00,,CLR,0.00,VWS V13.01,2013-07-01 22:59:00,
2013-07-01 19:04:00,64.7,44.0,30.13,NNE,17,2.0,4.0,47,0.00,,CLR,0.00,VWS V13.01,2013-07-01 23:04:00,
2013-07-01 19:09:00,64.5,44.4,30.13,NW,317,0.0,3.0,48,0.00,,CLR,0.00,VWS V13.01,2013-07-01 23:09:00,
2013-07-01 19:14:00,64.3,45.3,30.13,NNW,338,1.0,4.0,50,0.00,,CLR,0.00,VWS V13.01,2013-07-01 23:14:00,
2013-07-01 19:19:00,64.3,45.3,30.13,North,9,0.0,3.0,50,0.00,,CLR,0.00,VWS V13.01,2013-07-01 23:19:00,
2013-07-01 19:24:00,64.2,44.7,30.13,NW,324,0.0,2.0,49,0.00,,CLR,0.00,VWS V13.01,2013-07-01 23:24:00,
2013-07-01 19:29:00,64.0,45.0,30.13,North,5,0.0,3.0,50,0.00,,CLR,0.00,VWS V13.01,2013-07-01 23:29:00,
2013-07-01 19:34:00,63.9,44.9,30.13,NW,322,0.0,2.0,50,0.00,,CLR,0.00,VWS V13.01,2013-07-01 23:34:00,
2013-07-01 19:39:00,63.7,45.2,30.13,NNE,12,0.0,4.0,51,0.00,,CLR,0.00,VWS V13.01,2013-07-01 23:39:00,
2013-07-01 19:44:00,63.6,45.2,30.13,NNE,15,2.0,2.0,51,0.00,,CLR,0.00,VWS V13.01,2013-07-01 23:44:00,
2013-07-01 19:49:00,63.4,45.0,30.13,North,11,0.0,1.0,51,0.00,,CLR,0.00,VWS V13.01,2013-07-01 23:49:00,
2013-07-01 19:54:00,63.3,45.4,30.13,North,5,0.0,1.0,52,0.00,,CLR,0.00,VWS V13.01,2013-07-01 23:54:00,
2013-07-01 19:59:00,63.1,45.2,30.13,NNW,346,0.0,3.0,52,0.00,,CLR,0.00,VWS V13.01,2013-07-01 23:59:00,
2013-07-01 20:04:00,63.0,45.6,30.13,NNW,348,0.0,2.0,53,0.00,,CLR,0.00,VWS V13.01,2013-07-02 00:04:00,
2013-07-01 20:10:00,62.9,46.0,30.13,NNE,29,1.0,1.0,54,0.00,,CLR,0.00,VWS V13.01,2013-07-02 00:10:00,
2013-07-01 20:15:00,62.7,45.3,30.13,NNE,15,0.0,2.0,53,0.00,,CLR,0.00,VWS V13.01,2013-07-02 00:15:00,
2013-07-01 20:20:00,62.6,45.2,30.13,NNE,16,0.0,2.0,53,0.00,,CLR,0.00,VWS V13.01,2013-07-02 00:20:00,
2013-07-01 20:25:00,62.5,45.7,30.14,NNE,14,0.0,1.0,54,0.00,,CLR,0.00,VWS V13.01,2013-07-02 00:25:00,
2013-07-01 20:30:00,62.2,45.4,30.14,North,11,0.0,1.0,54,0.00,,CLR,0.00,VWS V13.01,2013-07-02 00:30:00,
2013-07-01 20:35:00,62.0,45.7,30.14,North,11,0.0,1.0,55,0.00,,CLR,0.00,VWS V13.01,2013-07-02 00:35:00,
2013-07-01 20:40:00,61.8,45.5,30.13,North,9,0.0,1.0,55,0.00,,CLR,0.00,VWS V13.01,2013-07-02 00:40:00,
2013-07-01 20:45:00,61.6,45.8,30.13,North,5,1.0,1.0,56,0.00,,CLR,0.00,VWS V13.01,2013-07-02 00:45:00,
2013-07-01 20:50:00,61.4,46.0,30.13,North,355,1.0,2.0,57,0.00,,CLR,0.00,VWS V13.01,2013-07-02 00:50:00,
2013-07-01 20:55:00,61.2,45.9,30.13,North,360,0.0,1.0,57,0.00,,CLR,0.00,VWS V13.01,2013-07-02 00:55:00,
2013-07-01 21:00:00,61.1,46.2,30.13,North,360,0.0,1.0,58,0.00,,CLR,0.00,VWS V13.01,2013-07-02 01:00:00,
2013-07-01 21:05:00,60.9,46.0,30.14,North,360,0.0,1.0,58,0.00,,CLR,0.00,VWS V13.01,2013-07-02 01:05:00,
2013-07-01 21:10:00,60.9,46.5,30.14,North,360,0.0,1.0,59,0.00,,CLR,0.00,VWS V13.01,2013-07-02 01:10:00,
2013-07-01 21:15:00,60.8,46.4,30.14,North,355,0.0,2.0,59,0.00,,CLR,0.00,VWS V13.01,2013-07-02 01:15:00,
2013-07-01 21:20:00,60.8,46.4,30.14,North,355,0.0,2.0,59,0.00,,CLR,0.00,VWS V13.01,2013-07-02 01:20:00,
2013-07-01 21:25:00,60.7,46.3,30.14,North,355,0.0,2.0,59,0.00,,CLR,0.00,VWS V13.01,2013-07-02 01:25:00,
2013-07-01 21:30:00,60.6,46.2,30.14,NW,318,1.0,2.0,59,0.00,,CLR,0.00,VWS V13.01,2013-07-02 01:30:00,
2013-07-01 21:35:00,60.5,46.1,30.14,North,9,0.0,3.0,59,0.00,,CLR,0.00,VWS V13.01,2013-07-02 01:35:00,
2013-07-01 21:40:00,60.4,46.0,30.14,North,5,0.0,1.0,59,0.00,,CLR,0.00,VWS V13.01,2013-07-02 01:40:00,
2013-07-01 21:45:00,60.3,46.4,30.14,North,9,0.0,2.0,60,0.00,,CLR,0.00,VWS V13.01,2013-07-02 01:45:00,
2013-07-01 21:50:00,60.2,45.8,30.14,NNE,15,0.0,3.0,59,0.00,,CLR,0.00,VWS V13.01,2013-07-02 01:50:00,
2013-07-01 21:55:00,60.2,45.8,30.14,North,5,1.0,2.0,59,0.00,,CLR,0.00,VWS V13.01,2013-07-02 01:55:00,
2013-07-01 22:00:00,60.0,46.1,30.14,North,360,1.0,1.0,60,0.00,,CLR,0.00,VWS V13.01,2013-07-02 02:00:00,
2013-07-01 22:05:00,59.9,46.0,30.14,North,360,1.0,1.0,60,0.00,,CLR,0.00,VWS V13.01,2013-07-02 02:05:00,
2013-07-01 22:10:00,59.8,46.3,30.15,North,355,0.0,2.0,61,0.00,,CLR,0.00,VWS V13.01,2013-07-02 02:10:00,
2013-07-01 22:15:00,59.7,46.2,30.15,North,355,0.0,1.0,61,0.00,,CLR,0.00,VWS V13.01,2013-07-02 02:15:00,
2013-07-01 22:20:00,59.5,46.1,30.15,NNW,348,0.0,2.0,61,0.00,,CLR,0.00,VWS V13.01,2013-07-02 02:20:00,
2013-07-01 22:25:00,59.4,46.4,30.15,NNW,347,1.0,1.0,62,0.00,,CLR,0.00,VWS V13.01,2013-07-02 02:25:00,
2013-07-01 22:30:00,59.2,46.2,30.14,NNW,348,0.0,1.0,62,0.00,,CLR,0.00,VWS V13.01,2013-07-02 02:30:00,
2013-07-01 22:35:00,59.0,46.0,30.14,NNW,348,0.0,3.0,62,0.00,,CLR,0.00,VWS V13.01,2013-07-02 02:35:00,
2013-07-01 22:40:00,58.8,45.8,30.14,NNE,29,1.0,4.0,62,0.00,,CLR,0.00,VWS V13.01,2013-07-02 02:40:00,
2013-07-01 22:45:00,58.6,45.6,30.14,NNE,26,0.0,2.0,62,0.00,,CLR,0.00,VWS V13.01,2013-07-02 02:45:00,
2013-07-01 22:50:00,58.5,45.5,30.14,North,5,0.0,1.0,62,0.00,,CLR,0.00,VWS V13.01,2013-07-02 02:50:00,
2013-07-01 22:55:00,58.3,45.3,30.14,North,11,0.0,1.0,62,0.00,,CLR,0.00,VWS V13.01,2013-07-02 02:55:00,
2013-07-01 23:01:00,58.2,45.3,30.13,North,360,0.0,1.0,62,0.00,,CLR,0.00,VWS V13.01,2013-07-02 03:01:00,
2013-07-01 23:06:00,58.0,45.5,30.13,NNW,348,0.0,3.0,63,0.00,,CLR,0.00,VWS V13.01,2013-07-02 03:06:00,
2013-07-01 23:11:00,57.9,45.8,30.13,NNW,344,1.0,2.0,64,0.00,,CLR,0.00,VWS V13.01,2013-07-02 03:11:00,
2013-07-01 23:16:00,57.9,45.8,30.13,North,360,1.0,2.0,64,0.00,,CLR,0.00,VWS V13.01,2013-07-02 03:16:00,
2013-07-01 23:21:00,57.8,45.7,30.13,North,360,0.0,1.0,64,0.00,,CLR,0.00,VWS V13.01,2013-07-02 03:21:00,
2013-07-01 23:26:00,57.7,46.0,30.13,North,355,1.0,2.0,65,0.00,,CLR,0.00,VWS V13.01,2013-07-02 03:26:00,
2013-07-01 23:31:00,57.6,46.3,30.13,North,350,0.0,2.0,66,0.00,,CLR,0.00,VWS V13.01,2013-07-02 03:31:00,
2013-07-01 23:36:00,57.6,46.3,30.12,NNW,348,0.0,2.0,66,0.00,,CLR,0.00,VWS V13.01,2013-07-02 03:36:00,
2013-07-01 23:41:00,57.5,45.8,30.12,NNE,17,1.0,4.0,65,0.00,,CLR,0.00,VWS V13.01,2013-07-02 03:41:00,
2013-07-01 23:46:00,57.5,46.2,30.12,North,350,0.0,1.0,66,0.00,,CLR,0.00,VWS V13.01,2013-07-02 03:46:00,
2013-07-01 23:51:00,57.5,46.2,30.12,North,350,1.0,3.0,66,0.00,,CLR,0.00,VWS V13.01,2013-07-02 03:51:00,
2013-07-01 23:56:00,57.5,46.2,30.12,North,10,0.0,2.0,66,0.00,,CLR,0.00,VWS V13.01,2013-07-02 03:56:00,